Salina, KS

3:25 PM CDT on May 26, 2017 (GMT -0500)
Salina Municipal

Weather History for KSLN - September, 2014

Change the Weather History Date:

Wednesday, September 3, 2014

  Actual Average Record
Temperature  
Mean Temperature 83 °F 76 °F  
Max Temperature 95 °F 87 °F 108 °F (1947)
Min Temperature 70 °F 64 °F 41 °F (1905)
Degree Days  
Heating Degree Days 0 0  
Month to date heating degree days 0 0  
Since 1 July heating degree days 0 1  
Cooling Degree Days 18 11  
Month to date cooling degree days 36 33  
Year to date cooling degree days 1594 1440  
Growing Degree Days 33 (Base 50)    
Moisture  
Dew Point 69 °F    
Average Humidity 67    
Maximum Humidity 90    
Minimum Humidity 43    
Precipitation  
Precipitation T in 0.10 in 4.82 in (1967)
Month to date precipitation 0.07 0.30  
Year to date precipitation 21.35 24.64  
Sea Level Pressure  
Sea Level Pressure 29.78 in    
Wind  
Wind Speed 16 mph (SSE)    
Max Wind Speed 31 mph    
Max Gust Speed 41 mph    
Visibility 10 miles    
Events Thunderstorm    
T = Trace of Precipitation, MM = Missing Value Source: NWS Daily Summary

Daily Weather History Graph

Daily Weather History Graph

Search for Another Location

Airport or City:

Trip Planner

Search our weather history database for the weather conditions in past years. The results will help you decide how hot, cold, wet, or windy it might be!

Date:

Astronomy

Sep. 03, 2014 Rise Set
Actual Time 7:01 AM CDT 7:57 PM CDT
Civil Twilight 6:34 AM CDT 8:24 PM CDT
Nautical Twilight 6:01 AM CDT 8:56 PM CDT
Astronomical Twilight 5:28 AM CDT 9:30 PM CDT
Moon 3:39 PM CDT (9/3) 12:58 AM CDT (9/3)
Length of Visible Light 13h 50m
Length of Day
12h 56m
Waxing Gibbous, 64% of the Moon is Illuminated
Sep 3
Waxing Gibbous
Sep 8
Full
Sep 15
Last Quarter
Sep 24
New
Oct 1
First Quarter

Hourly Weather History & Observations

Time (CDT) Temp. Heat Index Dew Point Humidity Pressure Visibility Wind Dir Wind Speed Gust Speed Precip Events Conditions
12:35 AM 73.9 °F - 66.0 °F 76% 29.93 in 10.0 mi South 10.4 mph - N/A Thunderstorm Mostly Cloudy
12:50 AM 73.4 °F - 68.0 °F 83% 29.92 in 10.0 mi SSE 11.5 mph - N/A   Mostly Cloudy
12:53 AM 73.9 °F - 68.0 °F 82% 29.88 in 10.0 mi SSE 13.8 mph - N/A   Mostly Cloudy
1:53 AM 73.0 °F - 69.1 °F 87% 29.87 in 10.0 mi SE 4.6 mph - 0.00 in   Partly Cloudy
2:53 AM 73.9 °F - 70.0 °F 87% 29.85 in 10.0 mi SE 11.5 mph - N/A   Scattered Clouds
3:53 AM 73.9 °F - 69.1 °F 85% 29.84 in 10.0 mi SE 9.2 mph - N/A   Clear
4:53 AM 73.0 °F - 69.1 °F 87% 29.83 in 10.0 mi SE 9.2 mph - N/A   Clear
5:53 AM 72.0 °F - 68.0 °F 87% 29.81 in 10.0 mi SE 11.5 mph - N/A   Clear
6:53 AM 71.1 °F - 66.9 °F 87% 29.81 in 10.0 mi SSE 10.4 mph - N/A   Clear
7:53 AM 72.0 °F - 68.0 °F 87% 29.82 in 10.0 mi SE 8.1 mph - N/A   Clear
8:53 AM 75.9 °F - 70.0 °F 82% 29.82 in 10.0 mi SSE 15.0 mph - N/A   Clear
9:53 AM 80.1 °F 83.2 °F 70.0 °F 71% 29.81 in 10.0 mi South 25.3 mph 29.9 mph N/A   Clear
10:53 AM 82.9 °F 87.5 °F 71.1 °F 67% 29.82 in 10.0 mi South 16.1 mph 21.9 mph N/A   Mostly Cloudy
11:53 AM 87.1 °F 93.6 °F 72.0 °F 61% 29.81 in 10.0 mi SE 19.6 mph 27.6 mph N/A   Partly Cloudy
12:53 PM 89.1 °F 98.0 °F 73.9 °F 61% 29.77 in 10.0 mi SSE 25.3 mph 31.1 mph N/A   Clear
1:53 PM 91.0 °F 99.3 °F 73.0 °F 55% 29.74 in 10.0 mi SSE 28.8 mph 35.7 mph N/A   Partly Cloudy
2:53 PM 93.0 °F 99.0 °F 70.0 °F 47% 29.73 in 10.0 mi South 21.9 mph 35.7 mph N/A   Clear
3:53 PM 93.0 °F 97.9 °F 69.1 °F 45% 29.70 in 10.0 mi South 24.2 mph 32.2 mph N/A   Clear
4:53 PM 95.0 °F 100.7 °F 69.1 °F 43% 29.69 in 10.0 mi South 19.6 mph 35.7 mph N/A   Clear
5:53 PM 93.9 °F 99.1 °F 69.1 °F 44% 29.68 in 10.0 mi South 19.6 mph 33.4 mph N/A   Clear
6:53 PM 91.9 °F 96.9 °F 69.1 °F 47% 29.69 in 10.0 mi South 18.4 mph 28.8 mph N/A   Clear
7:53 PM 88.0 °F 92.1 °F 69.1 °F 53% 29.69 in 10.0 mi South 15.0 mph - N/A   Clear
8:53 PM 86.0 °F 89.4 °F 68.0 °F 55% 29.71 in 10.0 mi SSE 16.1 mph - N/A   Clear
9:53 PM 84.9 °F 88.2 °F 68.0 °F 57% 29.72 in 10.0 mi South 16.1 mph - N/A   Clear
10:53 PM 82.9 °F 85.4 °F 66.9 °F 58% 29.72 in 10.0 mi South 15.0 mph - N/A   Clear
11:53 PM 82.9 °F 85.4 °F 66.9 °F 58% 29.74 in 10.0 mi South 11.5 mph - N/A   Clear